Погода в Богородском

Россия / Самарская область     53°38′00″N   51°09′56″E
темп.,
°C
ветер,
м/с
пор.,
м/с
влажн.,
%
обл.,
%
осадки,
мм/ч
давл.,
гПа
погр.,
м
24 июля, сб
сб2401:00+15сз22710 0.0 100513
04:00+13зсз11750 0.0 100611
07:00+17з23575 0.0 1006162
10:00+23з46425 0.0 10071388
13:00+23з4641100 0.0 10071955
16:00+23сз563984 0.0 10081612
19:00+22сз474296 0.0 1009482
22:00+17ссз376764 0.1 1012239
25 июля, вс
вс2501:00+13ссз33845 0.0 101447
04:00+11ссз22840 0.0 101525
07:00+15с36590 0.0 1018248
10:00+20с56300 0.0 10191662
13:00+22ссз56240 0.0 10192073
16:00+23ссз55240 0.0 10192302
19:00+21с353411 0.0 1020236
22:00+14с22481 0.0 102215
26 июля, пн
пн2601:00+12с22540 0.0 102311
04:00+11с11562 0.0 102310
07:00+16ссз12474 0.0 1024115
10:00+22зсз353110 0.0 10242283
13:00+24сз342664 0.0 10232846
16:00+25ссз342548 0.0 10222835
19:00+23с473365 0.0 1021470
22:00+16с224910 0.0 102216
27 июля, вт
вт2701:00+14зсз115728 0.0 102210
04:00+15зюз225278 0.0 102114
07:00+18з255057 0.0 1021188
10:00+23зсз57375 0.0 10201649
13:00+23сз463734 0.0 10181520
16:00+26зсз683498 0.1 10162581
19:00+19з267438 1.6 1017174
22:00+18сз396977 1.6 1017181
28 июля, ср
ср2801:00+13ссз22820 0.0 101820
04:00+12сз22880 0.0 101814
07:00+15ссз24760 0.0 1018197
10:00+21с36420 0.0 10181558
13:00+24ссз57310 0.0 10162244
16:00+26ссз57295 0.0 10152701
19:00+24ссз47350 0.0 1014509
22:00+17ссв11532 0.0 101411